^^
Your Local Weather - Clay, NY Station Historical Data
Daily Summary for September 8, 2017 Units:  English    Metric   Both
« Previous Day
Next Day »
Daily Weekly Monthly Yearly Custom
  High: Low: Average:
Temperature: 64.5 °F 52.2 °F 57.1 °F
Dew Point: 57.3 °F 47.5 °F 50.1 °F
Humidity: 91% 63% 78%
Wind Speed: 5.0mph 0.0mph 1.6mph
Wind Gust: 12.0mph - -
Wind- - West
Pressure: 30.22 in 29.89 in -
Precipitation: 0.05 in    
Historical Graphs
 
 
Tabular Data for September 8, 2017
Time Temperature Dew Point Pressure Wind Wind Speed Wind Gust Humidity Rainfall Rate (Hourly) solar
00:03 55.3 °F 47.9 °F 29.89 in South 3.0 mph 3.0 mph 76% 0.00 in 0 W/m2
00:09 55.2 °F 47.8 °F 29.89 in SW 2.0 mph 4.0 mph 76% 0.00 in 0 W/m2
00:15 55.0 °F 47.9 °F 29.89 in SW 2.0 mph 4.0 mph 77% 0.00 in 0 W/m2
00:21 54.9 °F 47.8 °F 29.89 in SW 3.0 mph 6.0 mph 77% 0.00 in 0 W/m2
00:27 54.8 °F 47.7 °F 29.89 in SSW 2.0 mph 6.0 mph 77% 0.00 in 0 W/m2
00:35 54.8 °F 47.7 °F 29.89 in SW 3.0 mph 3.0 mph 77% 0.00 in 0 W/m2
00:43 54.8 °F 47.7 °F 29.90 in SSW 2.0 mph 4.0 mph 77% 0.00 in 0 W/m2
00:49 54.9 °F 47.8 °F 29.90 in SW 3.0 mph 3.0 mph 77% 0.00 in 0 W/m2
00:55 54.9 °F 47.8 °F 29.90 in West 3.0 mph 6.0 mph 77% 0.00 in 0 W/m2
01:02 54.7 °F 47.6 °F 29.90 in West 3.0 mph 5.0 mph 77% 0.00 in 0 W/m2
01:07 54.6 °F 47.5 °F 29.90 in WSW 2.0 mph 5.0 mph 77% 0.00 in 0 W/m2
01:13 54.5 °F 47.8 °F 29.91 in SW 2.0 mph 3.0 mph 78% 0.00 in 0 W/m2
01:19 54.4 °F 47.7 °F 29.91 in SW 2.0 mph 2.0 mph 78% 0.00 in 0 W/m2
01:25 54.3 °F 47.6 °F 29.91 in WSW 2.0 mph 3.0 mph 78% 0.00 in 0 W/m2
01:31 54.1 °F 47.7 °F 29.91 in WSW 1.0 mph 1.0 mph 79% 0.00 in 0 W/m2
01:37 53.9 °F 47.9 °F 29.91 in SW 1.0 mph 5.0 mph 80% 0.00 in 0 W/m2
01:43 54.0 °F 48.0 °F 29.91 in SW 2.0 mph 2.0 mph 80% 0.00 in 0 W/m2
01:49 53.9 °F 47.9 °F 29.91 in WSW 1.0 mph 2.0 mph 80% 0.00 in 0 W/m2
01:55 54.1 °F 48.1 °F 29.91 in SSW 2.0 mph 4.0 mph 80% 0.00 in 0 W/m2
02:02 54.1 °F 48.1 °F 29.91 in WSW 2.0 mph 3.0 mph 80% 0.00 in 0 W/m2
02:07 54.1 °F 48.1 °F 29.91 in WSW 2.0 mph 5.0 mph 80% 0.00 in 0 W/m2
02:13 54.0 °F 48.0 °F 29.91 in WSW 2.0 mph 3.0 mph 80% 0.00 in 0 W/m2
02:19 54.0 °F 48.0 °F 29.91 in SW 2.0 mph 5.0 mph 80% 0.00 in 0 W/m2
02:25 54.0 °F 48.0 °F 29.91 in SW 3.0 mph 5.0 mph 80% 0.00 in 0 W/m2
02:31 54.0 °F 48.0 °F 29.91 in WSW 2.0 mph 3.0 mph 80% 0.00 in 0 W/m2
02:38 53.9 °F 47.9 °F 29.92 in SW 2.0 mph 3.0 mph 80% 0.00 in 0 W/m2
02:43 53.8 °F 47.8 °F 29.92 in SW 2.0 mph 5.0 mph 80% 0.00 in 0 W/m2
02:49 53.8 °F 47.8 °F 29.92 in SW 2.0 mph 4.0 mph 80% 0.00 in 0 W/m2
02:55 53.9 °F 47.9 °F 29.92 in SW 1.0 mph 4.0 mph 80% 0.00 in 0 W/m2
03:02 53.8 °F 48.1 °F 29.92 in SW 1.0 mph 5.0 mph 81% 0.00 in 0 W/m2
03:08 53.8 °F 48.1 °F 29.92 in SW 1.0 mph 5.0 mph 81% 0.00 in 0 W/m2
03:13 53.8 °F 48.1 °F 29.92 in SSW 2.0 mph 2.0 mph 81% 0.00 in 0 W/m2
03:19 53.9 °F 48.2 °F 29.92 in SW 2.0 mph 2.0 mph 81% 0.00 in 0 W/m2
03:25 54.0 °F 48.3 °F 29.92 in SW 2.0 mph 2.0 mph 81% 0.00 in 0 W/m2
03:31 53.9 °F 48.2 °F 29.92 in SW 1.0 mph 2.0 mph 81% 0.00 in 0 W/m2
03:37 53.9 °F 48.2 °F 29.92 in SW 1.0 mph 3.0 mph 81% 0.00 in 0 W/m2
03:43 53.9 °F 48.2 °F 29.92 in WSW 1.0 mph 3.0 mph 81% 0.00 in 0 W/m2
03:49 54.0 °F 48.3 °F 29.92 in WSW 1.0 mph 1.0 mph 81% 0.00 in 0 W/m2
03:55 54.1 °F 48.4 °F 29.92 in West 1.0 mph 2.0 mph 81% 0.00 in 0 W/m2
04:01 54.2 °F 48.5 °F 29.92 in WSW 1.0 mph 2.0 mph 81% 0.00 in 0 W/m2
04:07 54.3 °F 48.6 °F 29.92 in WSW 2.0 mph 4.0 mph 81% 0.00 in 0 W/m2
04:13 54.4 °F 48.7 °F 29.92 in SW 2.0 mph 3.0 mph 81% 0.00 in 0 W/m2
04:19 54.6 °F 48.9 °F 29.93 in SW 2.0 mph 3.0 mph 81% 0.00 in 0 W/m2
04:25 54.7 °F 48.6 °F 29.93 in SW 2.0 mph 3.0 mph 80% 0.00 in 0 W/m2
04:31 54.7 °F 48.6 °F 29.93 in WSW 2.0 mph 5.0 mph 80% 0.00 in 0 W/m2
04:37 54.8 °F 48.7 °F 29.93 in WSW 2.0 mph 5.0 mph 80% 0.00 in 0 W/m2
04:43 54.8 °F 48.7 °F 29.93 in SSW 2.0 mph 2.0 mph 80% 0.00 in 0 W/m2
04:49 54.9 °F 48.8 °F 29.94 in SSW 2.0 mph 4.0 mph 80% 0.00 in 0 W/m2
04:55 54.9 °F 48.8 °F 29.94 in WSW 2.0 mph 4.0 mph 80% 0.00 in 0 W/m2
05:02 55.0 °F 48.6 °F 29.94 in WSW 2.0 mph 3.0 mph 79% 0.00 in 0 W/m2
05:07 55.0 °F 48.6 °F 29.94 in WSW 2.0 mph 4.0 mph 79% 0.00 in 0 W/m2
05:13 55.1 °F 48.7 °F 29.94 in WSW 3.0 mph 7.0 mph 79% 0.00 in 0 W/m2
05:19 55.2 °F 48.8 °F 29.94 in SW 3.0 mph 3.0 mph 79% 0.00 in 0 W/m2
05:25 55.2 °F 48.8 °F 29.94 in WSW 3.0 mph 4.0 mph 79% 0.00 in 0 W/m2
05:31 55.1 °F 48.7 °F 29.94 in WSW 2.0 mph 4.0 mph 79% 0.00 in 0 W/m2
05:37 55.0 °F 48.9 °F 29.94 in SW 2.0 mph 4.0 mph 80% 0.00 in 0 W/m2
05:43 54.8 °F 48.7 °F 29.94 in WSW 3.0 mph 4.0 mph 80% 0.00 in 0 W/m2
05:49 54.6 °F 48.9 °F 29.95 in WSW 3.0 mph 3.0 mph 81% 0.00 in 0 W/m2
05:55 54.5 °F 48.8 °F 29.95 in SSW 2.0 mph 5.0 mph 81% 0.00 in 0 W/m2
06:02 54.4 °F 48.7 °F 29.95 in WSW 1.0 mph 2.0 mph 81% 0.00 in 0 W/m2
06:07 54.4 °F 48.7 °F 29.95 in WSW 2.0 mph 3.0 mph 81% 0.00 in 0 W/m2
06:13 54.4 °F 48.7 °F 29.95 in West 2.0 mph 4.0 mph 81% 0.00 in 0 W/m2
06:19 54.5 °F 48.8 °F 29.96 in WSW 2.0 mph 3.0 mph 81% 0.00 in 0 W/m2
06:25 54.4 °F 48.7 °F 29.96 in WSW 1.0 mph 3.0 mph 81% 0.00 in 0 W/m2
06:31 54.4 °F 48.7 °F 29.97 in SW 1.0 mph 2.0 mph 81% 0.00 in 0 W/m2
06:37 54.4 °F 48.7 °F 29.97 in SSW 1.0 mph 2.0 mph 81% 0.00 in 0 W/m2
06:43 54.4 °F 48.7 °F 29.97 in WSW 2.0 mph 5.0 mph 81% 0.00 in 0 W/m2
06:49 54.4 °F 48.4 °F 29.97 in SW 2.0 mph 5.0 mph 80% 0.00 in 5 W/m2
06:55 54.4 °F 48.4 °F 29.97 in WSW 3.0 mph 5.0 mph 80% 0.00 in 7 W/m2
07:01 54.3 °F 48.3 °F 29.97 in WSW 1.0 mph 2.0 mph 80% 0.00 in 12 W/m2
07:07 54.3 °F 48.3 °F 29.98 in WSW 2.0 mph 5.0 mph 80% 0.00 in 21 W/m2
07:13 54.3 °F 48.3 °F 29.98 in SW 2.0 mph 2.0 mph 80% 0.00 in 23 W/m2
07:19 54.3 °F 48.3 °F 29.98 in WSW 1.0 mph 1.0 mph 80% 0.00 in 30 W/m2
07:25 54.3 °F 48.6 °F 29.98 in SSW 1.0 mph 3.0 mph 81% 0.00 in 44 W/m2
07:31 54.4 °F 48.7 °F 29.98 in WSW 2.0 mph 5.0 mph 81% 0.00 in 44 W/m2
07:38 54.5 °F 48.5 °F 29.99 in SW 2.0 mph 5.0 mph 80% 0.00 in 58 W/m2
07:43 54.6 °F 48.6 °F 29.99 in SW 2.0 mph 3.0 mph 80% 0.00 in 54 W/m2
07:49 54.8 °F 48.7 °F 29.99 in SW 2.0 mph 2.0 mph 80% 0.00 in 69 W/m2
07:55 54.9 °F 48.8 °F 29.99 in SW 2.0 mph 4.0 mph 80% 0.00 in 76 W/m2
08:02 55.1 °F 48.7 °F 30.00 in SW 3.0 mph 5.0 mph 79% 0.00 in 72 W/m2
08:07 55.2 °F 48.8 °F 30.00 in SW 3.0 mph 5.0 mph 79% 0.00 in 67 W/m2
08:13 55.2 °F 48.8 °F 30.00 in SW 2.0 mph 3.0 mph 79% 0.00 in 88 W/m2
08:19 55.3 °F 48.9 °F 30.00 in WSW 2.0 mph 2.0 mph 79% 0.00 in 121 W/m2
08:25 55.5 °F 49.1 °F 30.00 in WSW 3.0 mph 3.0 mph 79% 0.00 in 121 W/m2
08:31 55.7 °F 48.9 °F 30.00 in SSW 3.0 mph 3.0 mph 78% 0.00 in 114 W/m2
08:37 55.8 °F 49.0 °F 30.00 in WSW 3.0 mph 7.0 mph 78% 0.00 in 139 W/m2
08:43 56.0 °F 49.2 °F 30.01 in SW 2.0 mph 5.0 mph 78% 0.00 in 163 W/m2
08:49 56.4 °F 49.6 °F 30.01 in West 3.0 mph 3.0 mph 78% 0.00 in 214 W/m2
08:55 56.9 °F 50.1 °F 30.01 in WSW 2.0 mph 3.0 mph 78% 0.00 in 229 W/m2
09:02 57.3 °F 50.5 °F 30.01 in WSW 2.0 mph 6.0 mph 78% 0.00 in 236 W/m2
09:08 57.7 °F 50.5 °F 30.01 in WSW 2.0 mph 6.0 mph 77% 0.00 in 153 W/m2
09:13 57.4 °F 50.2 °F 30.01 in WNW 2.0 mph 5.0 mph 77% 0.00 in 200 W/m2
09:19 57.4 °F 50.6 °F 30.02 in WSW 2.0 mph 5.0 mph 78% 0.00 in 218 W/m2
09:25 57.4 °F 50.9 °F 30.02 in WSW 2.0 mph 5.0 mph 79% 0.00 in 197 W/m2
09:31 57.4 °F 50.6 °F 30.02 in SW 2.0 mph 4.0 mph 78% 0.00 in 174 W/m2
09:37 57.3 °F 50.5 °F 30.02 in West 3.0 mph 6.0 mph 78% 0.00 in 206 W/m2
09:43 57.2 °F 50.4 °F 30.02 in NW 3.0 mph 5.0 mph 78% 0.00 in 211 W/m2
09:49 57.5 °F 50.7 °F 30.03 in SW 2.0 mph 4.0 mph 78% 0.00 in 220 W/m2
09:55 57.6 °F 51.1 °F 30.03 in WSW 2.0 mph 4.0 mph 79% 0.00 in 206 W/m2
10:02 58.9 °F 52.4 °F 30.03 in WSW 2.0 mph 2.0 mph 79% 0.00 in 714 W/m2
10:07 59.6 °F 52.0 °F 30.03 in SW 3.0 mph 8.0 mph 76% 0.00 in 729 W/m2
10:13 59.2 °F 51.3 °F 30.03 in WSW 5.0 mph 12.0 mph 75% 0.00 in 276 W/m2
10:19 59.5 °F 53.0 °F 30.03 in WSW 3.0 mph 3.0 mph 79% 0.00 in 281 W/m2
10:25 60.6 °F 53.3 °F 30.03 in West 2.0 mph 5.0 mph 77% 0.00 in 837 W/m2
10:31 61.3 °F 52.6 °F 30.03 in SW 2.0 mph 2.0 mph 73% 0.00 in 844 W/m2
10:37 61.3 °F 51.8 °F 30.03 in SSW 3.0 mph 3.0 mph 71% 0.00 in 916 W/m2
10:43 60.7 °F 52.0 °F 30.03 in SW 3.0 mph 8.0 mph 73% 0.00 in 348 W/m2
10:49 61.0 °F 52.3 °F 30.03 in SSW 3.0 mph 4.0 mph 73% 0.00 in 279 W/m2
10:55 59.7 °F 51.0 °F 30.03 in SW 4.0 mph 9.0 mph 73% 0.00 in 313 W/m2
11:02 60.2 °F 53.3 °F 30.03 in West 4.0 mph 4.0 mph 78% 0.00 in 540 W/m2
11:07 61.4 °F 52.7 °F 30.03 in SSW 2.0 mph 6.0 mph 73% 0.00 in 429 W/m2
11:13 61.3 °F 52.9 °F 30.03 in SW 2.0 mph 6.0 mph 74% 0.00 in 334 W/m2
11:19 60.9 °F 52.6 °F 30.03 in West 2.0 mph 2.0 mph 74% 0.00 in 350 W/m2
11:25 60.6 °F 53.0 °F 30.03 in WNW 1.0 mph 2.0 mph 76% 0.00 in 214 W/m2
11:31 60.0 °F 53.1 °F 30.04 in NW 2.0 mph 3.0 mph 78% 0.00 in 255 W/m2
11:37 59.1 °F 53.6 °F 30.04 in NW 2.0 mph 3.0 mph 82% 0.15 in 202 W/m2
11:43 58.7 °F 53.9 °F 30.05 in NW 2.0 mph 5.0 mph 84% 0.06 in 206 W/m2
11:49 57.9 °F 53.1 °F 30.05 in NW 2.0 mph 2.0 mph 84% 0.04 in 185 W/m2
11:55 57.4 °F 53.2 °F 30.05 in NW 1.0 mph 4.0 mph 86% 0.10 in 163 W/m2
12:02 56.9 °F 52.8 °F 30.05 in WSW 1.0 mph 3.0 mph 86% 0.08 in 262 W/m2
12:07 57.4 °F 53.9 °F 30.05 in NW 1.0 mph 3.0 mph 88% 0.04 in 285 W/m2
12:13 57.8 °F 54.3 °F 30.05 in NW 1.0 mph 3.0 mph 88% 0.00 in 357 W/m2
12:19 59.9 °F 56.3 °F 30.05 in NW 1.0 mph 2.0 mph 88% 0.00 in 951 W/m2
12:25 60.8 °F 55.3 °F 30.05 in NW 2.0 mph 4.0 mph 82% 0.00 in 981 W/m2
12:31 61.5 °F 57.3 °F 30.05 in WNW 2.0 mph 2.0 mph 86% 0.00 in 429 W/m2
12:37 61.2 °F 55.3 °F 30.05 in NNW 1.0 mph 3.0 mph 81% 0.00 in 378 W/m2
12:43 61.4 °F 55.9 °F 30.05 in South 2.0 mph 4.0 mph 82% 0.00 in 939 W/m2
12:49 62.2 °F 54.9 °F 30.05 in WSW 2.0 mph 2.0 mph 77% 0.00 in 967 W/m2
12:55 62.5 °F 54.1 °F 30.05 in NW 2.0 mph 6.0 mph 74% 0.00 in 1056 W/m2
13:02 63.0 °F 54.6 °F 30.05 in NW 2.0 mph 2.0 mph 74% 0.00 in 1100 W/m2
13:07 62.1 °F 54.8 °F 30.05 in NW 2.0 mph 2.0 mph 77% 0.00 in 260 W/m2
13:13 61.3 °F 53.3 °F 30.05 in NW 2.0 mph 6.0 mph 75% 0.00 in 260 W/m2
13:19 61.1 °F 53.5 °F 30.05 in North 2.0 mph 2.0 mph 76% 0.00 in 353 W/m2
13:25 61.2 °F 52.8 °F 30.05 in NW 2.0 mph 2.0 mph 74% 0.00 in 218 W/m2
13:31 61.1 °F 52.7 °F 30.06 in NW 2.0 mph 3.0 mph 74% 0.00 in 230 W/m2
13:38 61.8 °F 53.8 °F 30.06 in North 2.0 mph 5.0 mph 75% 0.00 in 353 W/m2
13:43 61.6 °F 52.9 °F 30.06 in NNW 3.0 mph 3.0 mph 73% 0.00 in 135 W/m2
13:49 61.0 °F 52.3 °F 30.06 in NNW 2.0 mph 2.0 mph 73% 0.00 in 149 W/m2
13:55 61.5 °F 52.4 °F 30.06 in NW 2.0 mph 3.0 mph 72% 0.00 in 206 W/m2
14:02 63.4 °F 51.4 °F 30.06 in West 2.0 mph 4.0 mph 65% 0.00 in 886 W/m2
14:08 62.9 °F 52.2 °F 30.06 in NW 3.0 mph 5.0 mph 68% 0.00 in 192 W/m2
14:13 62.6 °F 51.1 °F 30.07 in South 2.0 mph 3.0 mph 66% 0.00 in 508 W/m2
14:19 63.4 °F 53.8 °F 30.07 in NE 2.0 mph 2.0 mph 71% 0.00 in 865 W/m2
14:25 64.5 °F 52.9 °F 30.07 in NNW 2.0 mph 4.0 mph 66% 0.00 in 875 W/m2
14:31 64.0 °F 51.6 °F 30.07 in NW 2.0 mph 6.0 mph 64% 0.00 in 330 W/m2
14:37 64.1 °F 51.7 °F 30.07 in NNW 4.0 mph 6.0 mph 64% 0.00 in 798 W/m2
14:43 63.1 °F 50.7 °F 30.08 in NNW 3.0 mph 6.0 mph 64% 0.00 in 163 W/m2
14:49 61.8 °F 50.3 °F 30.08 in NW 3.0 mph 3.0 mph 66% 0.00 in 244 W/m2
14:55 62.8 °F 52.1 °F 30.08 in SSW 2.0 mph 4.0 mph 68% 0.00 in 896 W/m2
15:02 63.7 °F 52.5 °F 30.08 in NW 2.0 mph 3.0 mph 67% 0.00 in 833 W/m2
15:07 63.5 °F 50.7 °F 30.08 in NW 2.0 mph 3.0 mph 63% 0.00 in 200 W/m2
15:13 62.5 °F 51.4 °F 30.08 in North 2.0 mph 4.0 mph 67% 0.00 in 206 W/m2
15:19 61.3 °F 50.2 °F 30.08 in WNW 3.0 mph 3.0 mph 67% 0.00 in 199 W/m2
15:25 62.5 °F 51.0 °F 30.08 in NW 3.0 mph 3.0 mph 66% 0.00 in 735 W/m2
15:31 63.4 °F 52.2 °F 30.08 in North 2.0 mph 3.0 mph 67% 0.00 in 598 W/m2
15:37 63.2 °F 50.8 °F 30.08 in NW 2.0 mph 4.0 mph 64% 0.00 in 587 W/m2
15:43 62.5 °F 50.2 °F 30.08 in NNW 3.0 mph 3.0 mph 64% 0.00 in 548 W/m2
15:49 61.8 °F 49.9 °F 30.08 in NW 4.0 mph 4.0 mph 65% 0.00 in 97 W/m2
15:55 61.6 °F 50.5 °F 30.08 in NNW 3.0 mph 4.0 mph 67% 0.00 in 541 W/m2
16:02 62.0 °F 50.1 °F 30.08 in NNW 3.0 mph 3.0 mph 65% 0.00 in 316 W/m2
16:07 62.0 °F 51.3 °F 30.09 in NNW 2.0 mph 4.0 mph 68% 0.00 in 183 W/m2
16:13 61.7 °F 50.2 °F 30.09 in NW 1.0 mph 4.0 mph 66% 0.00 in 137 W/m2
16:19 61.4 °F 49.9 °F 30.09 in WNW 2.0 mph 3.0 mph 66% 0.00 in 468 W/m2
16:25 62.4 °F 50.9 °F 30.09 in NNW 2.0 mph 3.0 mph 66% 0.00 in 561 W/m2
16:31 63.4 °F 52.2 °F 30.09 in NW 2.0 mph 2.0 mph 67% 0.00 in 550 W/m2
16:37 63.5 °F 51.1 °F 30.09 in NNW 3.0 mph 5.0 mph 64% 0.00 in 575 W/m2
16:43 62.8 °F 50.9 °F 30.09 in WNW 4.0 mph 4.0 mph 65% 0.00 in 171 W/m2
16:49 62.2 °F 50.3 °F 30.09 in NNW 3.0 mph 3.0 mph 65% 0.00 in 86 W/m2
16:55 61.1 °F 50.5 °F 30.09 in WNW 2.0 mph 3.0 mph 68% 0.00 in 401 W/m2
17:01 61.3 °F 50.6 °F 30.09 in NW 2.0 mph 3.0 mph 68% 0.00 in 404 W/m2
17:07 61.8 °F 50.7 °F 30.09 in NNW 2.0 mph 4.0 mph 67% 0.00 in 404 W/m2
17:13 62.0 °F 50.9 °F 30.09 in NNW 1.0 mph 2.0 mph 67% 0.00 in 394 W/m2
17:19 62.5 °F 51.0 °F 30.09 in NW 1.0 mph 1.0 mph 66% 0.00 in 364 W/m2
17:25 62.4 °F 50.1 °F 30.10 in NW 1.0 mph 2.0 mph 64% 0.00 in 348 W/m2
17:31 62.3 °F 50.4 °F 30.10 in NW 2.0 mph 4.0 mph 65% 0.00 in 283 W/m2
17:37 62.2 °F 49.4 °F 30.10 in NW 2.0 mph 2.0 mph 63% 0.00 in 142 W/m2
17:43 62.0 °F 50.1 °F 30.10 in NW 1.0 mph 2.0 mph 65% 0.00 in 86 W/m2
17:49 61.9 °F 50.0 °F 30.11 in North 1.0 mph 1.0 mph 65% 0.00 in 79 W/m2
17:55 61.4 °F 49.9 °F 30.11 in NNW 1.0 mph 1.0 mph 66% 0.00 in 90 W/m2
18:01 60.9 °F 50.3 °F 30.11 in NNW 1.0 mph 2.0 mph 68% 0.00 in 123 W/m2
18:08 60.6 °F 50.0 °F 30.11 in NW 1.0 mph 2.0 mph 68% 0.00 in 40 W/m2
18:13 60.4 °F 50.2 °F 30.11 in NW 1.0 mph 1.0 mph 69% 0.00 in 37 W/m2
18:19 60.0 °F 49.8 °F 30.11 in North 1.0 mph 4.0 mph 69% 0.00 in 30 W/m2
18:25 59.9 °F 49.7 °F 30.11 in North 2.0 mph 4.0 mph 69% 0.00 in 28 W/m2
18:31 59.7 °F 50.3 °F 30.11 in North 1.0 mph 1.0 mph 71% 0.00 in 23 W/m2
18:37 59.4 °F 49.6 °F 30.12 in North 1.0 mph 1.0 mph 70% 0.00 in 26 W/m2
18:43 59.1 °F 50.1 °F 30.12 in North 1.0 mph 1.0 mph 72% 0.00 in 26 W/m2
18:49 58.9 °F 50.3 °F 30.12 in Calm   1.0 mph 73% 0.00 in 25 W/m2
18:55 58.9 °F 50.3 °F 30.12 in Calm   1.0 mph 73% 0.00 in 21 W/m2
19:02 58.6 °F 50.3 °F 30.12 in Calm     74% 0.00 in 16 W/m2
19:07 58.3 °F 50.4 °F 30.12 in Calm     75% 0.00 in 12 W/m2
19:13 57.9 °F 50.0 °F 30.12 in Calm     75% 0.00 in 9 W/m2
19:19 57.5 °F 50.0 °F 30.13 in Calm     76% 0.00 in 7 W/m2
19:25 57.3 °F 49.8 °F 30.13 in Calm     76% 0.00 in 0 W/m2
19:31 56.9 °F 49.8 °F 30.13 in Calm     77% 0.00 in 0 W/m2
19:37 56.4 °F 49.6 °F 30.13 in Calm     78% 0.00 in 0 W/m2
19:43 56.0 °F 49.6 °F 30.13 in Calm     79% 0.00 in 0 W/m2
19:49 55.6 °F 49.5 °F 30.14 in Calm     80% 0.00 in 0 W/m2
19:55 55.1 °F 49.4 °F 30.14 in Calm     81% 0.00 in 0 W/m2
20:01 54.4 °F 49.3 °F 30.14 in Calm     83% 0.00 in 0 W/m2
20:07 53.9 °F 49.2 °F 30.14 in Calm     84% 0.00 in 0 W/m2
20:13 53.6 °F 49.2 °F 30.14 in Calm     85% 0.00 in 0 W/m2
20:19 53.4 °F 49.3 °F 30.15 in Calm     86% 0.00 in 0 W/m2
20:25 53.0 °F 48.9 °F 30.15 in Calm     86% 0.00 in 0 W/m2
20:31 52.7 °F 48.6 °F 30.15 in Calm     86% 0.00 in 0 W/m2
20:37 52.4 °F 48.6 °F 30.15 in Calm     87% 0.00 in 0 W/m2
20:43 52.2 °F 48.4 °F 30.15 in Calm     87% 0.00 in 0 W/m2
20:49 52.2 °F 48.8 °F 30.16 in Calm     88% 0.00 in 0 W/m2
20:55 52.3 °F 49.2 °F 30.16 in Calm     89% 0.00 in 0 W/m2
21:01 52.8 °F 49.9 °F 30.16 in Calm     90% 0.00 in 0 W/m2
21:08 53.2 °F 50.3 °F 30.16 in Calm     90% 0.00 in 0 W/m2
21:13 53.5 °F 50.6 °F 30.17 in Calm   2.0 mph 90% 0.00 in 0 W/m2
21:19 53.8 °F 50.9 °F 30.17 in WNW 1.0 mph 1.0 mph 90% 0.00 in 0 W/m2
21:25 53.8 °F 50.9 °F 30.17 in Calm   1.0 mph 90% 0.00 in 0 W/m2
21:31 53.7 °F 50.5 °F 30.17 in Calm     89% 0.00 in 0 W/m2
21:37 53.6 °F 50.4 °F 30.17 in Calm   1.0 mph 89% 0.00 in 0 W/m2
21:43 53.5 °F 50.3 °F 30.17 in Calm     89% 0.00 in 0 W/m2
21:49 53.4 °F 50.2 °F 30.17 in Calm     89% 0.00 in 0 W/m2
21:55 53.3 °F 50.1 °F 30.17 in Calm     89% 0.00 in 0 W/m2
22:02 53.1 °F 49.9 °F 30.17 in Calm     89% 0.00 in 0 W/m2
22:07 52.9 °F 49.7 °F 30.17 in Calm     89% 0.00 in 0 W/m2
22:13 52.9 °F 49.7 °F 30.17 in Calm     89% 0.00 in 0 W/m2
22:19 52.9 °F 50.0 °F 30.18 in Calm     90% 0.00 in 0 W/m2
22:25 52.9 °F 50.0 °F 30.18 in Calm     90% 0.00 in 0 W/m2
22:31 53.0 °F 50.1 °F 30.18 in Calm     90% 0.00 in 0 W/m2
22:37 53.0 °F 50.1 °F 30.18 in Calm     90% 0.00 in 0 W/m2
22:43 53.0 °F 50.1 °F 30.19 in Calm     90% 0.00 in 0 W/m2
22:49 53.0 °F 50.1 °F 30.19 in Calm     90% 0.00 in 0 W/m2
22:55 53.1 °F 50.5 °F 30.19 in Calm   1.0 mph 91% 0.00 in 0 W/m2
23:02 53.1 °F 50.2 °F 30.19 in Calm     90% 0.00 in 0 W/m2
23:08 53.2 °F 50.3 °F 30.19 in Calm     90% 0.00 in 0 W/m2
23:17 53.2 °F 50.3 °F 30.20 in Calm     90% 0.00 in 0 W/m2
23:23 53.2 °F 50.3 °F 30.20 in Calm   1.0 mph 90% 0.00 in 0 W/m2
23:29 53.3 °F 50.4 °F 30.20 in Calm     90% 0.00 in 0 W/m2
23:33 53.2 °F 50.3 °F 30.20 in Calm     90% 0.00 in 0 W/m2
23:39 53.2 °F 50.0 °F 30.20 in Calm     89% 0.00 in 0 W/m2
23:45 53.0 °F 49.8 °F 30.20 in Calm   2.0 mph 89% 0.00 in 0 W/m2
23:51 52.9 °F 49.4 °F 30.21 in WNW 1.0 mph 1.0 mph 88% 0.00 in 0 W/m2
23:53 52.9 °F 49.4 °F 30.21 in North 1.0 mph 2.0 mph 88% 0.00 in 0 W/m2
23:59 52.9 °F 49.4 °F 30.22 in NW 1.0 mph 2.0 mph 88% 0.00 in 0 W/m2
Country Meadow, Clay, NY, USA
Compliments of Weather Underground - 2 mb